Location: Étavigny
(49.1201°N, 2.9800°E)
Time: 00:53:22
(UTC+00:00)

CSL-04 Rocket - Pass Details

Date: 28 January 2023
Orbit: 806 x 859 km, 98.8° (Epoch: 21 March)

Event Time Altitude Azimuth Distance (km) Brightness Sun altitude
Exits shadow 18:50:26 43° 60° (ENE) 1,138 3.9 -21.6°
Drops below altitude 10° 18:55:18 10° 356° (N) 2,434 6.1 -22.4°
Sets 18:57:45 0° 350° (N) 3,380 6.9 -22.8°
